Regional Weather Roundup
Issued by NWS

Home | Current Version | Previous Version | Text Only | Print | Product List | Glossary On
Versions: 1 2 3 4 5 6 7 8 9 10 11 12 13 14 15 16 17 18 19 20 21 22 23 24 25 26 27 28 29 30 31 32 33 34 35 36 37 38 39 40 41 42 43 44 45 46 47 48 49 50
000
ASUS43 KMPX 270801
RWRMN
WEATHER ROUNDUP FOR MINNESOTA
NATIONAL WEATHER SERVICE TWIN CITIES/CHANHASSEN MN
300 AM CDT SAT AUG 27 2016


NOTE: "FAIR" INDICATES FEW OR NO CLOUDS BELOW 12,000 FEET WITH NO
SIGNIFICANT WEATHER AND/OR OBSTRUCTIONS TO VISIBILITY. N/A MEANS
CURRENT SKY AND/OR WEATHER CONDITIONS ARE NOT AVAILABLE.

MNZ060>063-068>070-270900-
   Twin Cities Metro

CITY           SKY/WX    TMP DP  RH WIND       PRES   REMARKS
TWIN CITIES    CLOUDY    64  57  78 SE7       30.08F
ST PAUL        CLOUDY    63  58  83 SE5       30.09F
CRYSTAL        MOCLDY    62  55  77 E5        30.07F
BLAINE         MOCLDY    63  57  82 E5        30.09S
LAKEVILLE      CLOUDY    59  59 100 E3        30.08F
EDEN PRAIRIE   CLOUDY    65  57  75 E6        30.07F
LAKEVILLE      CLOUDY    59  59 100 E3        30.08F
SOUTH ST PAUL  CLOUDY    64  58  81 CALM      30.09F
LAKE ELMO      DRIZZLE   61  59  94 CALM      30.10F
$$
MNZ001>005-007-008-013>017-022>024-027-028-270900-
   Northwest Minnesota

CITY           SKY/WX    TMP DP  RH WIND       PRES   REMARKS
BEMIDJI        CLOUDY    61  54  78 S3        30.05F
HALLOCK        PTCLDY    54  52  94 S7        29.98F
ROSEAU         MOCLDY    57  54  88 S6        30.02S
WARROAD        CLOUDY    59  55  88 CALM      30.03S
THIEF RVR FALL CLOUDY    55  51  86 S3        30.03F
CROOKSTON      MOCLDY    57  54  88 S7        30.02F
FOSSTON        CLOUDY    57  54  88 SE5       30.04F
DETROIT LAKES  PTCLDY    63  55  77 S7        30.05F
MOORHEAD       CLOUDY    61  57  88 SE6       30.02F
PARK RAPIDS    CLOUDY    61  54  77 SE6       30.06F
MAHNOMEN       CLOUDY    60  56  85 SE3       30.03F
$$
MNZ006-009>011-018-025>026-270900-
   North Central Minnesota

CITY           SKY/WX    TMP DP  RH WIND       PRES   REMARKS
BAUDETTE       CLOUDY    58  53  84 S3        30.03F
FLAG ISLAND    CLOUDY    63  55  77 CALM      30.00S HAZE
INTL FALLS     CLOUDY    58  53  84 CALM      30.05F
WASKISH        CLOUDY    61  55  82 CALM      30.05S
BIG FORK       CLOUDY    57  55  94 CALM      30.08S
LONGVILLE      CLOUDY    57  55  94 CALM      30.08S
GRAND RAPIDS   CLOUDY    59  55  87 SE5       30.11S
ORR            CLOUDY    55  52  88 CALM      30.06F
COOK           LGT RAIN  59  54  82 CALM      30.09F
WALKER         CLOUDY    60  54  82 CALM      30.07S
$$
MNZ012-019>021-037-270900-
   Northeast Minnesota

CITY           SKY/WX    TMP DP  RH WIND       PRES   REMARKS
DULUTH         MOCLDY    58  53  84 CALM      30.11S
ELY            PTCLDY    55  52  88 CALM      30.10F
HIBBING        PTCLDY    51  51 100 CALM      30.10F
EVELETH        PTCLDY    53  52  96 CALM      30.11F
DULUTH HARBOR  MOCLDY    61  55  82 S3        30.10F
TWO HARBORS    PTCLDY    54  48  82 CALM      30.09S
SILVER BAY     PTCLDY    50  48  93 CALM      30.10S
G MARAIS ARPRT PTCLDY    48  45  87 CALM      30.15S
$$
MNZ029>031-032-039>041-046>048-054>057-064-270900-
   West Central Minnesota

CITY           SKY/WX    TMP DP  RH WIND       PRES   REMARKS
FERGUS FALLS   CLOUDY    61  57  88 S8        30.05F
WHEATON        CLOUDY    63  59  88 E5        30.04F
MORRIS         CLOUDY    61  57  88 SE6       30.04F
ALEXANDRIA     CLOUDY    61  56  83 SE7       30.07F
ELBOW LAKE     CLOUDY    60  57  91 E6        30.04F
GLENWOOD       PTCLDY    59  57  94 CALM      30.07S
APPLETON       CLOUDY    63  57  82 SE3       30.03F
BENSON         DRIZZLE   61  55  82 S5        30.05S
ORTONVILLE     CLOUDY    63  57  82 CALM      30.03F
MADISON        CLOUDY    61  59  94 CALM      30.03F
WILLMAR        CLOUDY    61  57  88 SE5       30.07S
$$
MNZ033>034-036-042>043-049>051-058-059-270900-
   Central Minnesota

CITY           SKY/WX    TMP DP  RH WIND       PRES   REMARKS
ST CLOUD       CLOUDY    59  58  96 CALM      30.08S
SAUK CENTRE    LGT RAIN  59  56  90 CALM      30.07S
PAYNESVILLE    MOCLDY    62  57  82 SE5       30.07F
AITKIN         MIX PCPN  59  54  82 CALM      30.09R
PINE RIVER     CLOUDY    57  55  94 CALM      30.10F
BRAINERD       CLOUDY    59  56  89 CALM      30.10R
STAPLES        CLOUDY    57  54  88 SE3       30.07F
LONG PRAIRIE   CLOUDY    59  55  88 CALM      30.08S
LITTLE FALLS   CLOUDY    59  54  82 CALM      30.09R
LITCHFIELD     CLOUDY    63  57  82 SE3       30.07F
BUFFALO        MOCLDY    59  55  85 E5        30.08F
MAPLE LAKE     PTCLDY    63  59  89 SE3       30.08F
HUTCHINSON     CLOUDY    60  59  95 CALM      30.07F
$$
MNZ037-044-045-052-053-270900-
   East Central Minnesota

CITY           SKY/WX    TMP DP  RH WIND       PRES   REMARKS
PRINCETON      CLOUDY    59  57  94 E3        30.08F
MORA           CLOUDY    54  52  94 CALM      30.11S
CAMBRIDGE      MOCLDY    63  54  72 CALM      30.08S
RUSH CITY      CLOUDY    57  56  94 SE3       30.10F
MOOSE LAKE     CLOUDY    54  52  94 CALM      30.09R
HINCKLEY       FAIR      54  54 100 CALM      30.10S
CLOQUET        CLOUDY    55  52  88 CALM      30.11R
MCGREGOR       CLOUDY    57  54  88 CALM      30.10R
$$
MNZ071>073-080-081-089-090-097-098-270900-
   Southwest Minnesota

CITY           SKY/WX    TMP DP  RH WIND       PRES   REMARKS
MONTEVIDEO     CLOUDY    61  57  88 S5        30.06F
GRANITE FALLS  CLOUDY    63  59  88 SE7       30.06F
CANBY          CLOUDY    61  59  93 E3        30.05S
MARSHALL       CLOUDY    62  59  90 S6        30.05F
REDWOOD FALLS  CLOUDY    61  58  90 CALM      30.05F
OLIVIA         CLOUDY    61  55  82 SE5       30.05F
PIPESTONE      CLOUDY    63  59  88 S6        30.06R
WINDOM         CLOUDY    63  57  82 SE3       30.05F
WORTHINGTON    CLOUDY    61  59  93 E6        30.05F
JACKSON          N/A     63  57  82 E3        30.06F
TRACY          CLOUDY    63  60  90 SE3       30.05F
$$
MNZ065>067-074>077-082>085-091>093-270900-
   South Central Minnesota

CITY           SKY/WX    TMP DP  RH WIND       PRES   REMARKS
MANKATO        CLOUDY    63  57  82 SE7       30.06F
NEW ULM          N/A     63  59  88 CALM      30.06F
ST JAMES       CLOUDY    57  54  88 SE3       30.07S
FAIRMONT       CLOUDY    61  59  93 SE3       30.06F
GLENCOE        CLOUDY    60  59  96 CALM      30.06F
FARIBAULT      CLOUDY    63  59  88 CALM      30.08F
OWATONNA       CLOUDY    63  57  82 S3        30.07F
WASECA         CLOUDY    59  57  94 SE5       30.07F
ALBERT LEA     CLOUDY    61  59  94 E3        30.07F
$$
MNZ078>079-086>088-094>096-270900-
   Southeast Minnesota

CITY           SKY/WX    TMP DP  RH WIND       PRES   REMARKS
ROCHESTER      CLOUDY    61  59  93 CALM      30.09F
RED WING       CLOUDY    63  61  94 E3        30.08F
STANTON        CLOUDY    63  59  88 CALM      30.07F
DODGE CENTER   CLOUDY    61  57  88 CALM      30.08F
WINONA         CLOUDY    61  59  94 SE5       30.09F
AUSTIN         CLOUDY    61  57  88 CALM      30.07F
PRESTON        CLOUDY    59  57  93 SE9       30.09F
$$
ABBREVIATIONS USED IN REMARKS
   TC - TEMPERATURES IN CELSIUS
  WCI - WIND CHILL INDEX
   HX - HEAT INDEX
  VSB - VISIBILITY
$$




USA.gov is the U.S. government's official web portal to all federal, state and local government web resources and services.